EW9605 Weather Reports


Display with metric or nautical units.
time (UTC)temp
F
wind
direction
speed
MPH
gust
MPH
rain 1hr
in
rain 24hr
in
rain mn
in
humidity
%
barometer
mb
20260502224122 72 0.0 0.0 0.07 0.36 0.36 93 1010.0
20260502223621 72 0.0 0.0 0.07 0.35 0.35 93 1009.7
20260502223140 72 0.0 0.0 0.07 0.35 0.35 93 1009.4
20260502222617 72 0.0 0.0 0.07 0.35 0.35 93 1009.6
20260502222116 72 0.0 0.0 0.06 0.34 0.34 93 1009.8
20260502221635 72 0.0 0.0 0.07 0.33 0.33 93 1009.8
20260502221134 72 0.0 0.0 0.08 0.32 0.32 93 1010.2
20260502220632 72 0.0 0.0 0.08 0.31 0.31 93 1009.6
20260502220131 72 0.0 0.0 0.09 0.30 0.30 92 1009.9
20260502215630 72 0.0 0.0 0.09 0.30 0.30 92 1010.3
20260502215128 72 0.0 0.0 0.08 0.29 0.29 92 1010.1
20260502214627 72 0.0 0.0 0.07 0.28 0.28 92 1009.4
20260502214126 72 0.0 0.0 0.07 0.28 0.28 92 1009.6
20260502213624 72 0.0 0.0 0.07 0.28 0.28 93 1009.6
20260502213123 72 0.0 0.0 0.08 0.28 0.28 93 1009.5
20260502212622 72 0.0 0.0 0.24 0.28 0.28 91 1009.7
20260502212120 72 0.0 0.0 0.27 0.28 0.28 91 1009.5
20260502211618 72 0.0 0.0 0.25 0.26 0.26 91 1009.5
20260502211117 72 0.0 0.0 0.23 0.24 0.24 92 1009.7
20260502210616 72 271 0.0 2.0 0.22 0.22 0.22 92 1010.0
20260502210134 72 258 1.0 6.0 0.21 0.21 0.21 91 1010.0
20260502205633 72 318 2.0 7.0 0.20 0.21 0.21 91 1009.5
20260502205132 73 276 1.0 2.0 0.20 0.21 0.21 90 1009.6
20260502204630 73 0.0 0.0 0.20 0.21 0.21 89 1009.5
20260502204129 73 226 1.0 4.0 0.20 0.21 0.21 90 1009.4
20260502203628 74 264 3.0 6.0 0.20 0.21 0.21 89 1009.5
20260502203127 76 286 2.0 4.0 0.20 0.20 0.20 85 1009.5
20260502202625 81 279 10.0 19.0 0.04 0.04 0.04 76 1009.3
20260502202125 82 235 4.0 4.0 0.00 0.00 0.00 78 1008.9
20260502201623 82 221 2.0 6.0 0.00 0.00 0.00 78 1009.0
20260502201142 82 0.0 0.0 0.00 0.00 0.00 78 1009.0
20260502200620 83 238 2.0 6.0 0.00 0.00 0.00 78 1009.0
20260502200119 83 208 4.0 6.0 0.00 0.00 0.00 78 1009.0
20260502195618 83 232 2.0 6.0 0.00 0.00 0.00 77 1009.1
20260502195116 82 240 8.0 15.0 0.00 0.00 0.00 78 1009.0
20260502194635 82 187 1.0 4.0 0.00 0.00 0.00 77 1009.0
20260502194133 82 244 1.0 3.0 0.00 0.00 0.00 77 1009.0
20260502193632 82 263 5.0 7.0 0.00 0.00 0.00 76 1009.3
20260502193211 82 260 7.0 15.0 0.00 0.00 0.00 76 1009.6
20260502192629 82 245 6.0 13.0 0.00 0.00 0.00 76 1009.6
20260502192128 82 257 7.0 10.0 0.00 0.00 0.00 75 1009.6
20260502191627 83 238 6.0 9.0 0.00 0.00 0.00 74 1009.6
20260502191125 83 241 7.0 10.0 0.00 0.00 0.00 73 1009.7
20260502190624 83 263 6.0 9.0 0.00 0.00 0.00 71 1009.6
20260502190123 83 255 5.0 8.0 0.00 0.00 0.00 71 1009.6
20260502185641 83 232 8.0 17.0 0.00 0.00 0.00 70 1009.6
20260502185119 83 234 4.0 8.0 0.00 0.00 0.00 71 1009.6
20260502184618 84 233 3.0 7.0 0.00 0.00 0.00 70 1009.7
20260502184117 84 221 7.0 10.0 0.00 0.00 0.00 70 1009.6
20260502183616 84 253 8.0 15.0 0.00 0.00 0.00 70 1009.7
20260502183135 84 218 7.0 11.0 0.00 0.00 0.00 69 1009.7
20260502182633 85 247 8.0 14.0 0.00 0.00 0.00 68 1009.8
20260502182152 85 238 7.0 10.0 0.00 0.00 0.00 68 1009.7
20260502181630 85 266 11.0 17.0 0.00 0.00 0.00 67 1009.9
20260502181129 86 214 6.0 13.0 0.00 0.00 0.00 66 1009.7
20260502180628 86 247 10.0 19.0 0.00 0.00 0.00 66 1010.0
20260502180126 86 265 7.0 10.0 0.00 0.00 0.00 66 1010.2
20260502170130 86 255 8.0 17.0 0.00 0.00 0.00 69 1010.4
20260502164145 86 209 12.0 21.0 0.00 0.00 0.00 69 1010.1
20260502163624 86 239 9.0 19.0 0.00 0.00 0.00 67 1010.2
20260502163122 86 240 7.0 11.0 0.00 0.00 0.00 67 1010.4
20260502162621 86 267 11.0 17.0 0.00 0.00 0.00 68 1010.4
20260502162119 86 221 9.0 16.0 0.00 0.00 0.00 68 1010.4
20260502161618 86 274 7.0 15.0 0.00 0.00 0.00 69 1010.4
20260502161137 86 241 9.0 18.0 0.00 0.00 0.00 70 1010.4
20260502160615 85 225 9.0 17.0 0.00 0.00 0.00 69 1010.6
20260502160134 86 284 10.0 17.0 0.00 0.00 0.00 67 1010.5
20260502152144 84 232 11.0 16.0 0.00 0.00 0.00 74 1010.0
20260502151622 85 219 7.0 14.0 0.00 0.00 0.00 73 1010.1
20260502151121 85 227 9.0 13.0 0.00 0.00 0.00 72 1010.1
20260502150640 85 247 9.0 17.0 0.00 0.00 0.00 71 1010.1
20260502150118 85 218 5.0 13.0 0.00 0.00 0.00 71 1010.1
20260502130627 76 0.0 0.0 0.00 0.00 0.00 89 1009.2
20260502130146 76 0.0 0.0 0.00 0.00 0.00 89 1009.1
20260502123659 74 0.0 0.0 0.00 0.00 0.00 93 1009.1
20260502123117 74 131 0.0 1.0 0.00 0.00 0.00 93 1009.3
20260502122616 73 0.0 0.0 0.00 0.00 0.00 94 1009.2
20260502122135 73 166 1.0 3.0 0.00 0.00 0.00 95 1009.2
20260502121653 72 0.0 0.0 0.00 0.00 0.00 96 1009.1
20260502121132 72 0.0 0.0 0.00 0.00 0.00 96 1009.2
20260502120630 71 0.0 0.0 0.00 0.00 0.00 96 1009.2
20260502120129 71 0.0 0.0 0.00 0.00 0.00 97 1009.0
20260502115627 70 0.0 0.0 0.00 0.00 0.00 97 1008.9
20260502115126 70 161 0.0 1.0 0.00 0.00 0.00 97 1009.0
20260502114624 69 0.0 0.0 0.00 0.00 0.00 97 1009.1
20260502114123 69 0.0 0.0 0.00 0.00 0.00 97 1009.0
20260502113621 69 0.0 0.0 0.00 0.00 0.00 97 1009.0
20260502113120 68 0.0 0.0 0.00 0.00 0.00 97 1008.8
20260502112619 68 181 1.0 3.0 0.00 0.00 0.00 97 1008.8
20260502112118 68 0.0 0.0 0.00 0.00 0.00 97 1009.0
20260502111616 68 0.0 0.0 0.00 0.00 0.00 96 1008.7
20260502111135 67 186 1.0 1.0 0.00 0.00 0.00 96 1008.7
20260502110634 67 0.0 0.0 0.00 0.00 0.00 96 1008.9
20260502110153 67 0.0 0.0 0.00 0.00 0.00 96 1008.8
20260502105631 67 0.0 0.0 0.00 0.00 0.00 96 1008.6
20260502105129 67 0.0 0.0 0.00 0.00 0.00 96 1008.6
20260502104628 67 0.0 0.0 0.00 0.00 0.00 96 1008.5
20260502104127 67 0.0 0.0 0.00 0.00 0.00 96 1008.5
20260502103625 67 0.0 0.0 0.00 0.00 0.00 96 1008.5
20260502103144 67 0.0 0.0 0.00 0.00 0.00 95 1008.4
20260502102622 67 0.0 0.0 0.00 0.00 0.00 95 1008.6
20260502102121 67 0.0 0.0 0.00 0.00 0.00 95 1008.5
20260502101620 68 0.0 0.0 0.00 0.00 0.00 95 1008.7
20260502101139 68 0.0 0.0 0.00 0.00 0.00 94 1008.8
20260502100638 68 0.0 0.0 0.00 0.00 0.00 94 1008.7
20260502100116 68 0.0 0.0 0.00 0.00 0.00 94 1008.9
20260502091122 69 0.0 0.0 0.00 0.00 0.00 93 1009.0
20260502090621 69 0.0 0.0 0.00 0.00 0.00 93 1009.0
20260502090119 69 0.0 0.0 0.00 0.00 0.00 93 1009.0
20260502071118 71 0.0 0.0 0.00 0.00 0.00 90 1009.4
20260502070637 72 0.0 0.0 0.00 0.00 0.00 91 1009.5
20260502070115 72 0.0 0.0 0.00 0.00 0.00 91 1009.5
20260502065654 72 0.0 0.0 0.00 0.00 0.00 90 1009.6
20260502065133 72 0.0 0.0 0.00 0.00 0.00 90 1009.5
20260502064631 72 0.0 0.0 0.00 0.00 0.00 90 1009.5
20260502064150 72 0.0 0.0 0.00 0.00 0.00 90 1009.4
20260502063649 72 0.0 0.0 0.00 0.00 0.00 90 1009.4
20260502063127 72 0.0 0.0 0.00 0.00 0.00 90 1009.5
20260502062626 72 0.0 0.0 0.00 0.00 0.00 90 1009.7
20260502062225 72 0.0 0.0 0.00 0.00 0.00 89 1009.7
20260502061623 72 0.0 0.0 0.00 0.00 0.00 89 1009.8
20260502061122 72 0.0 0.0 0.00 0.00 0.00 89 1010.1
20260502060621 72 0.0 0.0 0.00 0.00 0.00 89 1009.9
20260502060119 72 0.0 0.0 0.00 0.00 0.00 89 1009.8
20260502055618 72 0.0 0.0 0.00 0.00 0.00 89 1009.9
20260502055117 72 0.0 0.0 0.00 0.00 0.00 89 1009.9
20260502054615 72 0.0 0.0 0.00 0.00 0.00 88 1009.7
20260502054154 72 0.0 0.0 0.00 0.00 0.00 88 1009.8
20260502053633 72 0.0 0.0 0.00 0.00 0.00 88 1009.9
20260502053152 72 0.0 0.0 0.00 0.00 0.00 88 1010.0
20260502052630 72 0.0 0.0 0.00 0.00 0.00 88 1010.0
20260502052129 72 0.0 0.0 0.00 0.00 0.00 88 1010.0
20260502051628 72 0.0 0.0 0.00 0.00 0.00 88 1010.0
20260502051126 73 0.0 0.0 0.00 0.00 0.00 88 1010.0
20260502050625 73 0.0 0.0 0.00 0.00 0.00 88 1010.0
20260502050123 73 0.0 0.0 0.00 0.00 0.00 88 1010.3
20260502045622 73 0.0 0.0 0.00 0.00 0.00 88 1010.2
20260502045121 73 0.0 0.0 0.00 0.00 0.00 88 1010.4
20260502044619 73 0.0 0.0 0.00 0.00 0.00 88 1010.6
20260502044118 73 0.0 0.0 0.00 0.00 0.00 88 1010.4
20260502043616 73 0.0 0.0 0.00 0.00 0.00 88 1010.4
20260502043135 73 0.0 0.0 0.00 0.00 0.00 88 1010.3
20260502042633 73 0.0 0.0 0.00 0.00 0.00 88 1010.2
20260502042132 73 0.0 0.0 0.00 0.00 0.00 87 1010.3
20260502041631 73 0.0 0.0 0.00 0.00 0.00 87 1010.3
20260502041149 73 0.0 0.0 0.00 0.00 0.00 87 1010.3
20260502040628 73 0.0 0.0 0.00 0.00 0.00 86 1010.4
20260502040127 73 0.0 0.0 0.00 0.00 0.00 86 1010.3
20260502035625 73 0.0 0.0 0.00 0.00 0.00 86 1010.3
20260502035144 73 0.0 0.0 0.00 0.00 0.00 85 1010.5
20260502034623 73 0.0 0.0 0.00 0.00 0.00 85 1010.4
20260502034122 73 0.0 0.0 0.00 0.00 0.00 85 1010.3
20260502033641 74 0.0 0.0 0.00 0.00 0.00 84 1010.4
20260502033119 74 0.0 0.0 0.00 0.00 0.00 84 1010.5
20260502032638 74 0.0 0.0 0.00 0.00 0.00 84 1010.4
20260502032136 74 0.0 0.0 0.00 0.00 0.00 84 1010.3
20260502031635 74 0.0 0.0 0.00 0.00 0.00 84 1010.5
20260502031134 74 0.0 0.0 0.00 0.00 0.00 83 1010.4
20260502030632 74 0.0 0.0 0.00 0.00 0.00 83 1010.6
20260502030131 74 0.0 0.0 0.00 0.00 0.00 83 1010.5
20260502025629 74 0.0 0.0 0.00 0.00 0.00 83 1010.7
20260502025128 74 0.0 0.0 0.00 0.00 0.00 83 1010.7
20260502024627 74 0.0 0.0 0.00 0.00 0.00 83 1010.6
20260502024146 74 0.0 0.0 0.00 0.00 0.00 82 1010.6
20260502023645 74 0.0 0.0 0.00 0.00 0.00 82 1010.5
20260502023143 74 0.0 0.0 0.00 0.00 0.00 81 1010.5
20260502022622 75 0.0 0.0 0.00 0.00 0.00 80 1010.5
20260502022120 75 0.0 0.0 0.00 0.00 0.00 80 1010.5
20260502021619 75 0.0 0.0 0.00 0.00 0.00 80 1010.6
20260502021118 75 0.0 0.0 0.00 0.00 0.00 80 1010.6
20260502020616 76 0.0 0.0 0.00 0.00 0.00 79 1010.5
20260502020135 76 0.0 0.0 0.00 0.00 0.00 79 1010.5
20260502015654 76 0.0 0.0 0.00 0.00 0.00 79 1010.6
20260502015132 76 0.0 0.0 0.00 0.00 0.00 78 1010.5
20260502014711 76 0.0 0.0 0.00 0.00 0.00 78 1010.4
20260502014210 76 0.0 0.0 0.00 0.00 0.00 78 1010.4
20260502013628 76 0.0 0.0 0.00 0.00 0.00 77 1010.2
20260502013126 76 0.0 0.0 0.00 0.00 0.00 77 1010.2
20260502012625 76 0.0 0.0 0.00 0.00 0.00 76 1010.1
20260502012124 76 0.0 0.0 0.00 0.00 0.00 76 1010.0
20260502011623 77 0.0 0.0 0.00 0.00 0.00 75 1009.9
20260502011121 77 0.0 0.0 0.00 0.00 0.00 75 1009.9
20260502010620 77 0.0 0.0 0.00 0.00 0.00 75 1009.7
20260502010119 77 0.0 0.0 0.00 0.00 0.00 75 1009.9
20260502005617 77 219 0.0 1.0 0.00 0.00 0.00 74 1009.7
20260502005116 78 247 1.0 2.0 0.00 0.00 0.00 74 1009.7
20260502004635 78 0.0 0.0 0.00 0.00 0.00 74 1009.7
20260502004133 78 261 1.0 3.0 0.00 0.00 0.00 73 1009.6
20260502003632 78 264 2.0 3.0 0.00 0.00 0.00 73 1009.7
20260502003131 78 236 1.0 3.0 0.00 0.00 0.00 73 1009.5
20260502002630 78 240 2.0 3.0 0.00 0.00 0.00 72 1009.6
20260502002128 78 0.0 0.0 0.00 0.00 0.00 71 1009.5
20260502001627 79 0.0 0.0 0.00 0.00 0.00 71 1009.4
20260502001125 79 260 3.0 4.0 0.00 0.00 0.00 70 1009.4
20260502000624 79 249 2.0 3.0 0.00 0.00 0.00 69 1009.3
20260502000123 80 255 4.0 6.0 0.00 0.00 0.00 69 1009.0
20260501235622 80 252 3.0 6.0 0.00 0.00 0.00 68 1009.2
20260501235140 80 252 3.0 6.0 0.00 0.00 0.00 67 1009.1
20260501234619 81 243 3.0 4.0 0.00 0.00 0.00 65 1009.1
20260501234118 81 244 3.0 4.0 0.00 0.00 0.00 65 1009.1
20260501233616 82 261 4.0 6.0 0.00 0.00 0.00 64 1009.1
20260501233155 82 246 3.0 7.0 0.00 0.00 0.00 62 1008.9
20260501232654 83 242 4.0 6.0 0.00 0.00 0.00 61 1009.1
20260501232133 85 236 3.0 6.0 0.00 0.00 0.00 59 1008.9
20260501231631 85 273 4.0 8.0 0.00 0.00 0.00 59 1008.8
20260501231130 85 239 3.0 6.0 0.00 0.00 0.00 59 1008.7
20260501230649 86 270 5.0 7.0 0.00 0.00 0.00 58 1008.6
20260501230127 86 232 1.0 8.0 0.00 0.00 0.00 59 1008.5
20260501225626 86 255 3.0 4.0 0.00 0.00 0.00 59 1008.5
20260501225125 87 275 3.0 7.0 0.00 0.00 0.00 58 1008.5
20260501224624 87 266 4.0 7.0 0.00 0.00 0.00 56 1008.6